This is the latest recevied weather packets stored in our database for station/object YO4CIL-MG. If no packets are shown the sender has not sent any weather packets the latest 10 day(s).
| Time | Temp. | Humidity | Pressure | Rain* | Wind** | Luminosity | Snow |
|---|---|---|---|---|---|---|---|
| 1777573519 | 8.89° C | 67% | 1023.4 hPa | - | - | - | - |
| 1777572919 | 8.89° C | 72% | 1023.4 hPa | - | - | - | - |
| 1777572319 | 8.89° C | 73% | 1023.4 hPa | - | - | - | - |
| 1777571719 | 8.89° C | 75% | 1023.1 hPa | - | - | - | - |
| 1777571119 | 8.89° C | 76% | 1023.1 hPa | - | - | - | - |
| 1777570519 | 8.89° C | 75% | 1023 hPa | - | - | - | - |
| 1777569919 | 8.89° C | 75% | 1022.9 hPa | - | - | - | - |
| 1777569319 | 8.89° C | 74% | 1022.8 hPa | - | - | - | - |
| 1777568719 | 8.89° C | 73% | 1022.6 hPa | - | - | - | - |
| 1777568119 | 8.89° C | 76% | 1022.5 hPa | - | - | - | - |
| 1777567519 | 8.89° C | 76% | 1022.4 hPa | - | - | - | - |
| 1777566919 | 8.89° C | 76% | 1022.3 hPa | - | - | - | - |
| 1777566319 | 8.89° C | 75% | 1022.3 hPa | - | - | - | - |
| 1777565719 | 8.89° C | 75% | 1022.2 hPa | - | - | - | - |
| 1777565119 | 9.44° C | 73% | 1022.2 hPa | - | - | - | - |
| 1777564519 | 9.44° C | 73% | 1022.3 hPa | - | - | - | - |
| 1777563919 | 9.44° C | 71% | 1022.2 hPa | - | - | - | - |
| 1777563319 | 9.44° C | 72% | 1022.3 hPa | - | - | - | - |
| 1777562719 | 9.44° C | 73% | 1022.4 hPa | - | - | - | - |
| 1777562119 | 9.44° C | 72% | 1022.4 hPa | - | - | - | - |
| 1777561519 | 10° C | 73% | 1022.4 hPa | - | - | - | - |
| 1777560919 | 10° C | 73% | 1022.3 hPa | - | - | - | - |
| 1777560319 | 10° C | 73% | 1022.3 hPa | - | - | - | - |
| 1777559719 | 10° C | 73% | 1022.2 hPa | - | - | - | - |
| 1777559119 | 10° C | 75% | 1022.2 hPa | - | - | - | - |
* Rain since midnight (hover to see other rain measurements)
** Current wind speed in m/s (hover to see current wind gust speed)